QPF
0.00 0.00 0.00 0.00 0.00 0.00 0.00 0.00 0.00 0.00 0.00 0.00 0.00 0.00 0.00 0.00 0.00 0.00 0.00 0.00 0.00 0.00 0.00 0.00 0.00 0.00 0.00 0.00 0.00 0.00 0.00 0.00 0.00 0.00 0.00 0.00 0.00 0.00 0.00 0.00 0.00 0.00 0.00 0.00 0.00
0.00 0.00 0.00 0.00 0.00 0.00 0.00 0.00 0.00 0.00 0.00 0.00 0.00 0.00 0.00 0.00 0.00 0.00 0.00 0.00 0.00 0.00 0.00 0.00 0.00 0.00 0.00 0.00 0.00 0.00 0.00 0.00 0.00 0.00 0.00 0.00 0.00 0.00 0.00 0.00 0.00 0.00 0.00 0.00 0.00
0.00 0.00 0.00 0.00 0.00 0.00 0.00 0.00 0.00 0.00 0.00 0.00 0.00 0.00 0.00 0.00 0.00 0.00 0.00 0.00 0.00 0.00 0.00 0.00 0.00 0.00 0.00 0.00 0.00 0.00 0.00 0.00 0.00 0.00 0.00 0.00 0.00 0.00 0.00 0.00 0.00 0.00 0.00 0.00 0.00
0.00 0.00 0.00 0.00 0.00 0.00 0.00 0.00 0.00 0.00 0.00 0.00 0.00 0.00 0.01 0.00 0.00 0.00 0.00 0.00 0.00 0.00 0.00 0.00 0.00 0.00 0.00 0.00 0.00 0.00 0.00 0.00 0.00 0.00 0.00 0.00 0.00 0.00 0.00 0.00 0.00 0.00 0.00 0.00 0.00
0.00 0.00 0.00 0.00 0.00 0.00 0.00 0.00 0.00 0.00 0.00 0.00 0.00 0.01 0.01 0.00 0.00 0.00 0.00 0.00 0.00 0.00 0.00 0.00 0.00 0.00 0.00 0.00 0.00 0.00 0.00 0.00 0.00 0.00 0.00 0.00 0.00 0.00 0.00 0.00 0.00 0.00 0.00 0.00 0.00
0.00 0.00 0.00 0.00 0.00 0.00 0.00 0.00 0.00 0.00 0.00 0.00 0.00 0.01 0.01 0.00 0.00 0.00 0.00 0.00 0.00 0.00 0.00 0.00 0.00 0.00 0.00 0.00 0.00 0.00 0.00 0.00 0.00 0.00 0.00 0.00 0.00 0.00 0.00 0.00 0.00 0.00 0.00 0.00 0.00
0.00 0.00 0.00 0.00 0.00 0.00 0.00 0.00 0.00 0.00 0.00 0.00 0.00 0.01 0.01 0.00 0.00 0.00 0.00 0.00 0.00 0.00 0.00 0.00 0.00 0.00 0.00 0.00 0.00 0.00 0.00 0.00 0.00 0.00 0.00 0.00 0.00 0.00 0.00 0.00 0.00 0.00 0.00 0.00 0.00
0.00 0.00 0.00 0.00 0.00 0.00 0.00 0.00 0.00 0.00 0.00 0.00 0.00 0.01 0.00 0.00 0.00 0.00 0.00 0.00 0.00 0.00 0.00 0.00 0.00 0.00 0.00 0.00 0.00 0.00 0.00 0.00 0.00 0.00 0.00 0.00 0.00 0.00 0.00 0.00 0.00 0.00 0.00 0.00 0.00
0.00 0.00 0.00 0.00 0.00 0.00 0.00 0.00 0.00 0.00 0.00 0.00 0.00 0.01 0.00 0.00 0.00 0.00 0.00 0.00 0.00 0.00 0.00 0.00 0.00 0.00 0.00 0.00 0.00 0.00 0.00 0.00 0.00 0.00 0.00 0.00 0.00 0.00 0.00 0.00 0.00 0.00 0.00 0.00 0.00
0.00 0.00 0.00 0.00 0.00 0.00 0.00 0.00 0.00 0.00 0.00 0.00 0.00 0.01 0.00 0.00 0.00 0.00 0.00 0.00 0.00 0.00 0.00 0.00 0.00 0.00 0.00 0.00 0.00 0.00 0.00 0.00 0.00 0.00 0.00 0.00 0.00 0.00 0.00 0.00 0.00 0.00 0.00 0.00 0.00
0.00 0.00 0.00 0.00 0.00 0.00 0.00 0.00 0.00 0.00 0.00 0.00 0.00 0.00 0.00 0.00 0.00 0.00 0.00 0.00 0.00 0.00 0.00 0.00 0.00 0.00 0.00 0.00 0.00 0.00 0.00 0.00 0.00 0.00 0.00 0.00 0.00 0.00 0.00 0.00 0.00 0.00 0.00 0.00 0.00
0.00 0.00 0.00 0.00 0.00 0.00 0.00 0.00 0.00 0.00 0.00 0.00 0.00 0.00 0.00 0.00 0.00 0.00 0.00 0.00 0.00 0.00 0.00 0.00 0.00 0.00 0.00 0.00 0.00 0.00 0.00 0.00 0.00 0.00 0.00 0.00 0.00 0.00 0.00 0.00 0.00 0.00 0.00 0.00 0.00
0.00 0.00 0.00 0.01 0.00 0.00 0.00 0.00 0.00 0.00 0.00 0.00 0.00 0.00 0.00 0.00 0.00 0.00 0.00 0.00 0.00 0.00 0.00 0.00 0.00 0.00 0.00 0.00 0.00 0.00 0.00 0.00 0.00 0.00 0.00 0.00 0.00 0.00 0.00 0.00 0.00 0.00 0.00 0.00 0.00
0.00 0.00 0.00 0.00 0.00 0.00 0.00 0.00 0.00 0.00 0.00 0.00 0.00 0.00 0.02 0.01 0.00 0.00 0.00 0.00 0.00 0.00 0.00 0.00 0.00 0.00 0.00 0.00 0.00 0.00 0.00 0.00 0.00 0.00 0.00 0.00 0.00 0.00 0.00 0.00 0.00 0.00 0.00 0.00 0.00
0.00 0.00 0.00 0.00 0.00 0.00 0.00 0.00 0.00 0.00 0.00 0.00 0.03 0.03 0.01 0.02 0.01 0.01 0.01 0.00 0.00 0.00 0.00 0.00 0.00 0.00 0.00 0.00 0.00 0.00 0.00 0.00 0.00 0.00 0.00 0.00 0.00 0.00 0.00 0.00 0.00 0.00 0.00 0.00 0.00
0.00 0.00 0.00 0.00 0.00 0.00 0.00 0.00 0.01 0.02 0.00 0.00 0.02 0.01 0.00 0.00 0.00 0.02 0.02 0.01 0.00 0.01 0.01 0.00 0.00 0.00 0.00 0.00 0.00 0.00 0.00 0.00 0.00 0.00 0.00 0.00 0.00 0.00 0.00 0.00 0.00 0.00 0.00 0.00 0.00
0.00 0.00 0.00 0.00 0.00 0.00 0.00 0.00 0.01 0.01 0.00 0.00 0.00 0.00 0.00 0.00 0.01 0.03 0.02 0.00 0.01 0.03 0.03 0.02 0.01 0.01 0.00 0.00 0.00 0.00 0.00 0.00 0.00 0.00 0.00 0.00 0.00 0.00 0.00 0.00 0.00 0.00 0.00 0.00 0.00
0.00 0.00 0.00 0.00 0.00 0.00 0.00 0.00 0.00 0.00 0.00 0.00 0.00 0.00 0.00 0.00 0.01 0.01 0.01 0.01 0.02 0.03 0.04 0.03 0.04 0.04 0.01 0.00 0.00 0.00 0.00 0.00 0.00 0.00 0.00 0.00 0.00 0.00 0.00 0.00 0.00 0.00 0.00 0.00 0.00
0.00 0.00 0.00 0.00 0.00 0.00 0.00 0.00 0.00 0.01 0.01 0.00 0.00 0.00 0.00 0.00 0.00 0.00 0.00 0.01 0.02 0.03 0.05 0.03 0.02 0.00 0.00 0.00 0.00 0.00 0.00 0.00 0.00 0.00 0.00 0.00 0.00 0.00 0.00 0.00 0.00 0.00 0.00 0.00 0.00
0.00 0.00 0.00 0.00 0.00 0.00 0.00 0.00 0.00 0.01 0.02 0.02 0.01 0.00 0.00 0.00 0.00 0.00 0.00 0.00 0.00 0.00 0.02 0.03 0.03 0.01 0.01 0.01 0.00 0.00 0.00 0.00 0.00 0.00 0.00 0.00 0.00 0.00 0.00 0.00 0.00 0.00 0.00 0.00 0.00
0.00 0.00 0.00 0.00 0.00 0.00 0.00 0.00 0.00 0.00 0.01 0.01 0.01 0.01 0.00 0.00 0.00 0.00 0.00 0.02 0.01 0.01 0.01 0.03 0.01 0.01 0.01 0.00 0.00 0.00 0.00 0.00 0.00 0.00 0.00 0.00 0.00 0.00 0.00 0.00 0.00 0.00 0.00 0.00 0.00
0.00 0.00 0.00 0.00 0.00 0.00 0.00 0.00 0.00 0.00 0.01 0.00 0.01 0.01 0.00 0.00 0.00 0.00 0.00 0.02 0.04 0.01 0.01 0.03 0.01 0.00 0.00 0.00 0.00 0.00 0.00 0.00 0.00 0.00 0.00 0.00 0.00 0.00 0.01 0.01 0.00 0.00 0.00 0.00 0.00
0.00 0.00 0.00 0.00 0.00 0.00 0.00 0.00 0.00 0.00 0.01 0.00 0.00 0.00 0.01 0.00 0.00 0.00 0.00 0.03 0.04 0.01 0.00 0.02 0.02 0.00 0.01 0.00 0.00 0.00 0.00 0.00 0.00 0.00 0.00 0.00 0.00 0.02 0.06 0.07 0.05 0.01 0.00 0.00 0.00
0.00 0.00 0.00 0.00 0.00 0.00 0.00 0.00 0.00 0.00 0.00 0.01 0.01 0.00 0.00 0.00 0.00 0.00 0.01 0.06 0.02 0.02 0.02 0.02 0.01 0.00 0.00 0.00 0.00 0.00 0.00 0.00 0.00 0.00 0.00 0.00 0.00 0.02 0.04 0.03 0.01 0.00 0.00 0.00 0.00
0.00 0.00 0.00 0.00 0.00 0.00 0.00 0.00 0.00 0.00 0.00 0.01 0.01 0.00 0.00 0.00 0.00 0.00 0.01 0.02 0.02 0.00 0.01 0.01 0.00 0.02 0.02 0.00 0.00 0.00 0.00 0.00 0.00 0.00 0.00 0.00 0.00 0.00 0.02 0.02 0.02 0.01 0.00 0.00 0.00
0.00 0.00 0.00 0.00 0.00 0.00 0.00 0.00 0.00 0.00 0.01 0.00 0.00 0.00 0.00 0.00 0.00 0.00 0.00 0.00 0.01 0.01 0.01 0.00 0.00 0.02 0.08 0.04 0.00 0.00 0.00 0.00 0.00 0.00 0.00 0.00 0.00 0.05 0.03 0.00 0.01 0.01 0.00 0.00 0.00
0.01 0.00 0.00 0.00 0.00 0.00 0.00 0.00 0.00 0.00 0.00 0.00 0.00 0.00 0.00 0.00 0.00 0.00 0.00 0.00 0.00 0.00 0.00 0.00 0.00 0.00 0.02 0.04 0.01 0.01 0.00 0.00 0.00 0.00 0.00 0.00 0.00 0.00 0.00 0.00 0.00 0.00 0.00 0.00 0.00
MSLP
1018.88 1018.56 1018.25 1017.87 1017.51 1017.18 1016.83 1016.46 1016.09 1015.76 1015.44 1015.22 1014.97 1014.58 1014.18 1013.76 1013.19 1012.90 1012.03 1009.51 1009.48 1009.30 1009.63 1009.67 1009.82 1010.20 1010.29 1010.77 1010.91 1011.42 1012.26 1012.12 1011.25 1010.32 1009.06 1007.86 1007.05 1006.20 1005.81 1005.66 1005.34 1005.49 1005.77 1005.41 1005.61
1018.87 1018.46 1018.11 1017.72 1017.31 1016.94 1016.57 1016.21 1015.89 1015.61 1015.24 1014.88 1014.61 1014.43 1014.05 1013.55 1012.92 1011.30 1008.37 1008.55 1008.72 1008.81 1009.62 1009.78 1009.81 1010.18 1010.68 1010.76 1010.77 1011.12 1011.42 1010.77 1009.85 1009.12 1008.36 1007.45 1007.16 1006.70 1006.37 1005.90 1005.61 1005.57 1005.90 1006.10 1006.22
1018.82 1018.35 1017.97 1017.53 1017.17 1016.81 1016.43 1016.00 1015.69 1015.23 1014.81 1014.50 1014.38 1014.25 1013.98 1013.54 1012.66 1008.68 1007.29 1007.90 1008.33 1008.54 1009.09 1009.39 1009.67 1010.01 1010.60 1010.62 1010.51 1010.18 1009.59 1009.32 1008.87 1008.28 1007.95 1007.42 1007.12 1006.56 1006.29 1006.14 1005.82 1005.74 1005.83 1006.49 1006.78
1018.89 1018.44 1017.95 1017.51 1017.06 1016.61 1016.13 1015.71 1015.32 1014.84 1014.48 1014.27 1014.16 1013.98 1013.81 1013.76 1011.68 1007.58 1006.95 1007.61 1007.74 1008.41 1009.01 1009.05 1009.60 1010.22 1010.52 1010.35 1009.93 1009.89 1009.04 1008.72 1008.28 1007.86 1007.69 1007.49 1006.75 1006.23 1006.28 1006.15 1005.58 1005.59 1005.61 1006.20 1006.54
1018.94 1018.42 1017.92 1017.44 1016.96 1016.44 1015.93 1015.43 1014.97 1014.41 1014.14 1013.97 1013.82 1013.73 1013.62 1013.21 1010.43 1007.65 1007.40 1007.72 1007.42 1008.26 1008.66 1008.62 1008.97 1009.46 1009.81 1009.66 1009.64 1009.27 1008.85 1008.32 1007.89 1007.81 1007.53 1007.14 1006.51 1006.49 1006.26 1006.08 1005.45 1005.45 1005.66 1005.83 1006.08
1018.99 1018.48 1017.88 1017.35 1016.75 1016.09 1015.49 1014.83 1014.41 1014.03 1013.81 1013.53 1013.36 1013.27 1013.21 1011.53 1008.23 1007.64 1007.57 1007.59 1007.55 1007.75 1008.29 1008.64 1008.04 1008.25 1008.68 1008.80 1008.88 1008.13 1008.08 1008.04 1007.85 1007.63 1007.53 1007.10 1006.39 1006.64 1005.61 1005.30 1005.37 1005.36 1005.09 1005.18 1005.47
1018.97 1018.40 1017.78 1017.08 1016.42 1015.72 1014.99 1014.17 1013.40 1013.10 1012.86 1012.70 1012.65 1012.73 1011.65 1008.63 1007.65 1007.17 1007.40 1007.47 1007.33 1007.49 1007.92 1007.71 1007.86 1007.71 1007.93 1008.14 1007.81 1007.94 1008.15 1007.85 1007.64 1007.52 1007.40 1007.02 1006.14 1005.78 1005.69 1005.42 1005.10 1004.92 1004.90 1005.04 1005.23
1018.51 1017.96 1017.32 1016.45 1015.67 1015.04 1014.44 1013.53 1012.25 1011.92 1011.47 1011.11 1011.33 1011.72 1009.57 1007.49 1006.60 1006.87 1007.23 1007.50 1007.49 1007.64 1007.96 1007.88 1007.75 1007.97 1007.81 1007.48 1007.53 1007.77 1007.99 1007.90 1007.05 1007.22 1007.03 1006.76 1005.62 1005.36 1005.02 1005.06 1005.12 1004.65 1005.05 1005.17 1005.12
1018.25 1017.65 1016.99 1016.09 1015.07 1014.32 1013.64 1012.60 1011.21 1010.47 1009.61 1009.61 1010.47 1010.58 1008.15 1006.63 1006.19 1005.51 1006.03 1006.10 1006.74 1007.30 1007.72 1007.81 1007.63 1007.81 1007.59 1007.71 1008.01 1007.48 1007.33 1007.24 1006.92 1006.39 1006.46 1006.44 1005.66 1004.55 1004.36 1004.76 1004.72 1004.69 1004.98 1005.08 1005.12
1018.03 1017.37 1016.60 1015.86 1014.78 1013.70 1012.87 1011.72 1010.01 1009.65 1009.34 1009.39 1009.64 1010.32 1007.58 1005.44 1004.84 1004.28 1004.36 1005.47 1006.28 1006.49 1007.54 1007.42 1007.32 1007.31 1007.57 1007.18 1005.52 1006.74 1006.78 1006.43 1006.06 1005.58 1005.71 1006.09 1005.80 1004.94 1004.53 1004.68 1004.62 1004.67 1004.78 1005.18 1005.21
1017.67 1017.05 1016.16 1015.48 1014.34 1013.36 1012.49 1011.63 1010.48 1010.18 1009.62 1008.44 1007.22 1005.86 1004.60 1004.00 1003.59 1003.84 1004.38 1005.34 1006.13 1006.06 1005.79 1005.95 1006.28 1004.47 1004.17 1005.46 1005.99 1005.96 1005.87 1005.64 1005.30 1004.89 1005.05 1005.60 1005.68 1005.22 1004.45 1004.77 1004.88 1004.87 1005.14 1005.23 1005.20
1017.24 1016.53 1015.70 1014.98 1013.77 1013.07 1012.62 1012.71 1012.11 1012.36 1009.61 1007.79 1006.06 1005.35 1003.67 1003.60 1003.84 1003.28 1004.23 1004.42 1005.32 1005.05 1005.27 1005.76 1003.25 1003.98 1005.08 1005.60 1005.82 1005.87 1005.66 1005.47 1004.95 1004.75 1004.87 1005.08 1005.28 1004.79 1004.42 1004.37 1004.26 1004.24 1004.68 1004.76 1004.88
1016.86 1015.97 1015.13 1014.26 1013.22 1012.77 1012.83 1012.46 1011.90 1012.04 1010.70 1006.23 1004.00 1003.59 1002.74 1002.75 1002.39 1001.72 1003.35 1003.49 1003.74 1004.11 1003.80 1003.10 1002.76 1003.70 1004.24 1004.64 1004.99 1004.90 1004.98 1005.13 1004.93 1004.97 1004.93 1004.88 1005.02 1004.60 1003.94 1003.74 1003.66 1003.72 1003.66 1004.23 1004.53
1016.36 1015.47 1014.52 1013.88 1012.82 1012.94 1012.45 1011.66 1011.79 1011.90 1010.48 1005.04 1002.78 1001.67 1001.71 1001.74 1001.52 1000.65 1001.01 1002.57 1002.68 1002.42 1002.99 1002.66 1002.06 1002.17 1002.69 1003.01 1003.75 1004.37 1004.72 1004.85 1005.10 1005.60 1005.98 1005.31 1005.57 1004.67 1003.99 1003.79 1003.71 1003.69 1004.05 1004.20 1004.29
1015.95 1015.06 1014.19 1013.54 1013.28 1012.90 1011.87 1011.57 1011.34 1011.59 1009.39 1003.37 1001.77 1001.52 1000.97 1001.21 1000.64 999.64 999.82 1000.75 1000.68 1000.91 1001.69 1000.72 1000.89 1001.37 1001.93 1001.82 1003.10 1003.43 1003.91 1004.71 1005.35 1006.02 1006.35 1006.24 1006.30 1004.98 1004.47 1004.36 1004.09 1004.27 1005.06 1005.21 1004.98
1015.61 1014.55 1013.80 1013.50 1013.52 1011.96 1011.43 1011.41 1011.45 1010.85 1007.22 1003.41 1001.87 1001.62 1001.54 1000.14 999.43 999.87 999.10 999.22 1000.01 1001.24 1000.97 1000.67 1000.02 1000.55 1000.32 1001.48 1002.06 1002.43 1003.72 1004.89 1005.89 1006.91 1007.03 1006.76 1006.85 1005.80 1005.68 1005.94 1005.85 1005.50 1005.89 1005.76 1005.61
1014.98 1013.80 1013.16 1013.18 1012.54 1011.57 1011.55 1011.35 1011.01 1009.24 1005.90 1003.75 1002.62 1002.04 1001.07 999.79 999.30 999.80 999.62 998.91 999.06 1000.00 999.98 1000.13 999.64 999.28 999.98 1000.79 1001.68 1001.71 1002.98 1005.11 1007.08 1007.60 1007.01 1006.29 1007.24 1006.17 1006.32 1006.32 1006.50 1006.58 1007.07 1006.76 1006.44
1014.36 1013.24 1013.03 1012.48 1011.72 1011.55 1011.54 1011.37 1010.47 1008.22 1006.46 1004.82 1003.56 1002.53 1001.27 999.86 999.54 999.96 999.90 999.26 998.63 998.55 999.30 999.43 999.73 999.21 998.62 998.95 999.28 1000.73 1001.69 1003.30 1005.07 1006.46 1007.16 1007.12 1006.88 1006.69 1006.73 1006.74 1006.96 1007.27 1007.50 1007.02 1007.09
1014.26 1013.45 1013.05 1011.97 1011.46 1011.49 1011.69 1011.43 1010.55 1009.04 1007.77 1006.23 1004.64 1002.79 1001.73 1000.50 1000.22 999.83 999.99 999.62 998.92 998.30 998.33 998.79 998.19 998.11 997.66 997.99 998.71 1000.18 1001.07 1002.01 1004.26 1005.55 1006.94 1007.33 1007.49 1007.28 1007.17 1007.22 1007.53 1007.82 1007.82 1007.75 1008.03
1015.02 1014.70 1013.00 1011.55 1011.30 1011.41 1011.78 1011.53 1010.31 1009.42 1008.32 1007.00 1005.80 1004.21 1002.76 1001.46 1000.94 1000.00 999.82 999.69 999.06 998.56 998.30 998.02 998.05 997.48 997.56 997.72 998.52 998.61 1000.46 1002.27 1003.84 1005.41 1006.80 1007.40 1007.39 1007.16 1007.60 1007.72 1007.98 1008.30 1008.33 1008.56 1008.84
1015.19 1014.68 1012.51 1011.23 1011.27 1011.81 1012.59 1011.80 1010.19 1009.01 1008.40 1007.45 1006.03 1005.10 1003.75 1002.33 1001.28 1000.28 999.77 999.24 999.23 998.48 998.75 997.92 997.84 998.10 997.77 997.87 998.69 999.28 1000.13 1001.74 1003.14 1004.64 1005.75 1007.25 1007.46 1006.82 1007.34 1007.80 1008.24 1008.80 1009.12 1009.33 1009.67
1015.87 1015.00 1012.74 1011.99 1012.27 1013.12 1012.83 1012.23 1010.86 1008.85 1008.05 1007.27 1006.45 1005.52 1004.44 1003.30 1001.87 1000.81 999.70 999.02 998.53 998.53 998.44 998.35 998.56 999.01 998.59 998.89 999.22 999.16 1000.12 1001.26 1002.63 1004.68 1005.33 1005.89 1007.36 1006.96 1007.50 1008.12 1008.60 1009.39 1009.95 1010.44 1010.69
1016.98 1015.94 1013.41 1013.17 1013.69 1013.25 1012.66 1011.71 1010.56 1009.49 1008.05 1007.21 1006.58 1005.95 1004.98 1003.60 1002.77 1001.16 1000.05 998.75 998.39 998.48 998.71 998.51 998.78 998.91 999.36 999.60 999.37 999.76 999.96 1000.40 1001.68 1003.24 1004.69 1005.53 1007.27 1007.40 1007.86 1008.61 1009.40 1009.71 1010.57 1011.33 1011.86
1017.57 1016.88 1015.38 1014.83 1014.70 1014.31 1012.93 1011.60 1010.30 1009.32 1008.26 1007.73 1006.55 1006.02 1004.91 1003.73 1002.81 1001.68 1000.73 999.29 998.91 998.69 998.77 998.69 998.82 998.32 997.87 997.14 998.31 999.17 999.32 999.95 1001.17 1002.84 1003.95 1004.87 1006.20 1007.26 1008.11 1008.89 1009.66 1010.63 1011.24 1012.11 1012.92
1018.06 1018.25 1017.62 1016.10 1014.65 1014.49 1013.46 1012.23 1010.86 1009.61 1008.82 1007.84 1006.84 1006.18 1005.09 1004.09 1003.23 1002.56 1001.76 1000.53 999.60 999.74 999.33 999.15 998.75 998.15 997.24 997.33 997.67 998.22 998.82 999.66 1000.65 1001.59 1002.77 1004.47 1005.06 1006.36 1007.64 1008.90 1010.05 1011.06 1011.98 1012.91 1014.05
1018.85 1018.53 1017.62 1016.62 1015.76 1014.64 1013.41 1012.42 1011.61 1010.18 1009.69 1008.20 1007.58 1006.38 1005.38 1004.54 1004.14 1003.34 1002.80 1001.53 1000.69 1000.06 999.63 999.01 998.98 998.42 998.10 997.51 997.55 998.04 998.55 999.16 1000.24 1001.60 1002.58 1004.10 1005.96 1007.13 1008.30 1009.51 1010.72 1011.72 1012.45 1013.80 1015.16
1018.63 1018.45 1017.96 1016.47 1015.64 1014.81 1014.01 1013.15 1011.99 1010.94 1009.59 1008.87 1007.78 1006.42 1005.29 1004.59 1003.88 1003.22 1003.03 1002.44 1001.86 1000.84 999.69 999.19 999.17 999.42 1000.05 998.90 998.45 999.20 999.62 999.77 1000.60 1001.48 1002.31 1004.05 1005.67 1007.29 1009.16 1010.45 1011.63 1012.73 1013.43 1014.78 1016.05
Thickness
5658 5658 5659 5660 5661 5661 5662 5663 5665 5665 5665 5666 5667 5669 5672 5674 5678 5681 5686 5708 5707 5710 5706 5707 5705 5702 5702 5696 5699 5694 5673 5667 5690 5702 5716 5736 5738 5757 5766 5761 5772 5774 5775 5793 5799
5653 5653 5654 5655 5656 5656 5657 5658 5658 5658 5659 5660 5661 5662 5665 5668 5673 5684 5711 5707 5706 5704 5699 5695 5695 5693 5686 5688 5690 5685 5671 5681 5701 5710 5716 5730 5732 5739 5743 5747 5756 5764 5770 5779 5786
5648 5649 5649 5650 5649 5650 5651 5652 5652 5653 5652 5653 5653 5654 5655 5658 5661 5696 5707 5702 5700 5698 5694 5693 5690 5688 5681 5683 5685 5688 5692 5697 5705 5712 5713 5719 5724 5734 5737 5733 5749 5751 5759 5763 5771
5643 5643 5643 5644 5644 5645 5645 5644 5644 5644 5643 5644 5644 5644 5645 5645 5665 5696 5697 5693 5694 5688 5683 5683 5679 5672 5670 5672 5680 5680 5691 5700 5702 5706 5708 5710 5725 5728 5729 5735 5750 5756 5760 5761 5764
5638 5638 5637 5637 5637 5637 5637 5636 5636 5635 5634 5633 5632 5630 5632 5634 5658 5680 5681 5680 5684 5676 5673 5674 5671 5667 5664 5670 5675 5675 5687 5691 5699 5696 5701 5709 5716 5717 5719 5733 5746 5750 5753 5757 5761
5630 5630 5629 5629 5629 5630 5630 5629 5627 5624 5622 5621 5618 5616 5615 5626 5665 5667 5665 5665 5668 5667 5664 5661 5668 5668 5664 5669 5670 5681 5681 5686 5690 5690 5692 5699 5710 5708 5723 5732 5735 5740 5749 5758 5762
5623 5623 5622 5622 5623 5622 5621 5621 5620 5616 5614 5610 5604 5599 5607 5643 5650 5652 5650 5650 5653 5654 5653 5656 5656 5661 5661 5663 5671 5673 5670 5676 5679 5682 5683 5692 5697 5702 5718 5722 5726 5736 5745 5748 5755
5617 5615 5613 5614 5614 5612 5611 5612 5614 5610 5607 5601 5594 5584 5600 5632 5637 5634 5628 5631 5632 5632 5634 5637 5642 5643 5647 5659 5660 5659 5656 5654 5672 5675 5682 5686 5685 5706 5716 5718 5720 5733 5735 5741 5746
5608 5605 5602 5602 5600 5597 5593 5595 5596 5598 5601 5592 5578 5569 5588 5610 5609 5617 5617 5615 5613 5616 5615 5617 5624 5625 5636 5634 5633 5642 5639 5645 5663 5673 5679 5676 5678 5706 5713 5711 5715 5722 5728 5735 5739
5596 5592 5588 5585 5581 5577 5574 5572 5576 5571 5570 5560 5553 5543 5564 5587 5591 5595 5595 5597 5597 5602 5597 5599 5605 5606 5612 5622 5641 5631 5640 5652 5659 5675 5671 5666 5670 5695 5702 5705 5708 5714 5720 5724 5731
5584 5577 5574 5566 5560 5552 5549 5542 5535 5531 5530 5534 5542 5552 5564 5563 5564 5567 5570 5569 5573 5582 5590 5594 5593 5614 5638 5635 5641 5646 5646 5648 5657 5672 5669 5657 5658 5674 5690 5690 5693 5700 5707 5712 5721
5571 5564 5556 5547 5539 5527 5513 5493 5483 5466 5482 5505 5515 5511 5533 5532 5522 5550 5549 5555 5548 5567 5572 5568 5599 5620 5612 5615 5621 5628 5631 5635 5652 5663 5659 5660 5656 5669 5683 5685 5691 5700 5702 5708 5714
5557 5550 5541 5531 5517 5503 5479 5464 5453 5435 5423 5484 5499 5500 5504 5508 5509 5535 5523 5534 5540 5547 5560 5575 5603 5598 5601 5604 5609 5621 5623 5625 5637 5648 5654 5656 5646 5665 5683 5686 5692 5699 5710 5710 5712
5546 5536 5523 5513 5496 5471 5453 5440 5425 5412 5400 5461 5482 5496 5500 5501 5504 5521 5531 5524 5531 5542 5550 5559 5587 5587 5591 5600 5606 5601 5617 5624 5627 5621 5614 5642 5617 5654 5669 5675 5687 5693 5700 5705 5712
5531 5519 5506 5487 5471 5451 5441 5427 5420 5410 5406 5488 5493 5493 5502 5502 5510 5524 5530 5523 5533 5544 5543 5566 5571 5572 5576 5597 5598 5601 5617 5618 5622 5610 5619 5623 5618 5638 5660 5672 5682 5688 5682 5688 5696
5516 5507 5494 5474 5453 5448 5439 5431 5423 5430 5443 5485 5495 5491 5492 5511 5522 5517 5531 5533 5533 5523 5540 5552 5577 5573 5594 5595 5601 5609 5607 5607 5596 5589 5585 5606 5612 5628 5642 5644 5652 5671 5671 5680 5688
5507 5497 5482 5464 5450 5450 5443 5438 5442 5440 5485 5491 5488 5487 5496 5510 5522 5514 5515 5530 5527 5518 5527 5544 5559 5580 5583 5577 5586 5595 5592 5563 5558 5562 5579 5609 5603 5625 5634 5642 5650 5662 5658 5669 5678
5502 5489 5472 5460 5457 5451 5446 5445 5444 5473 5480 5486 5490 5487 5497 5514 5517 5512 5498 5514 5535 5541 5533 5534 5532 5558 5582 5582 5590 5583 5590 5561 5559 5558 5573 5601 5597 5615 5628 5636 5646 5650 5653 5664 5668
5494 5482 5470 5466 5462 5456 5449 5441 5444 5456 5456 5462 5471 5491 5498 5511 5514 5522 5496 5511 5536 5545 5543 5543 5555 5574 5587 5593 5595 5584 5583 5597 5577 5589 5581 5588 5599 5613 5623 5632 5638 5640 5647 5653 5656
5483 5467 5467 5475 5467 5460 5445 5446 5453 5447 5449 5457 5461 5481 5480 5500 5506 5520 5518 5521 5530 5540 5551 5555 5556 5578 5585 5594 5597 5603 5604 5581 5580 5574 5571 5586 5593 5600 5613 5625 5631 5632 5639 5643 5646
5470 5461 5475 5478 5471 5454 5442 5449 5453 5460 5455 5456 5469 5472 5484 5500 5510 5518 5525 5529 5529 5544 5547 5559 5561 5565 5583 5579 5576 5583 5587 5593 5589 5582 5574 5576 5587 5607 5615 5619 5623 5624 5628 5630 5632
5462 5453 5474 5474 5468 5450 5448 5442 5451 5463 5465 5464 5465 5470 5476 5486 5503 5519 5529 5534 5540 5547 5554 5558 5557 5546 5566 5576 5587 5589 5589 5584 5567 5579 5576 5581 5589 5608 5609 5611 5616 5615 5615 5615 5617
5457 5454 5467 5464 5454 5457 5457 5457 5464 5462 5468 5470 5467 5463 5474 5495 5502 5520 5530 5545 5549 5548 5549 5558 5554 5551 5558 5564 5573 5575 5592 5598 5592 5589 5586 5581 5582 5598 5604 5607 5605 5607 5606 5606 5606
5449 5446 5452 5444 5449 5448 5453 5464 5470 5474 5473 5469 5478 5476 5477 5491 5502 5520 5530 5544 5547 5549 5553 5559 5554 5562 5565 5579 5576 5576 5595 5604 5600 5582 5590 5593 5595 5597 5599 5600 5599 5597 5599 5597 5594
5440 5428 5435 5446 5451 5445 5453 5458 5463 5467 5467 5474 5479 5481 5490 5492 5506 5513 5518 5530 5544 5541 5546 5553 5562 5572 5590 5598 5601 5599 5601 5603 5604 5607 5610 5598 5608 5606 5602 5600 5595 5593 5591 5587 5580
5437 5433 5437 5437 5439 5448 5458 5459 5456 5465 5462 5474 5474 5481 5490 5497 5499 5508 5510 5527 5536 5541 5547 5556 5558 5575 5583 5598 5607 5604 5611 5615 5614 5604 5607 5602 5595 5596 5593 5592 5590 5588 5586 5575 5565
5439 5434 5430 5445 5443 5447 5451 5449 5456 5457 5469 5469 5473 5485 5494 5500 5501 5507 5508 5513 5518 5532 5551 5560 5565 5561 5558 5586 5599 5585 5589 5604 5604 5610 5611 5600 5599 5597 5588 5586 5581 5575 5574 5564 5555